Погода в Грядах

Россия / Курская область     51°48′51″N   34°59′20″E
темп.,
°C
ветер,
м/с
пор.,
м/с
влажн.,
%
обл.,
%
осадки,
мм/ч
давл.,
гПа
погр.,
м
14 августа, вс
вс1400:00+22всв4855100 0.1 1017235
03:00+21всв4105899 0.1 1017268
06:00+20в4105988 0.0 1017214
09:00+21в51262100 0.0 1017391
12:00+25в695897 0.0 1017707
15:00+24в696181 0.0 1017719
18:00+24всв51062100 0.0 1016609
21:00+21св51274100 0.0 1015273
15 августа, пн
пн1500:00+21всв5135858 0.0 1015372
03:00+18всв412648 0.0 1015259
06:00+18всв5126282 0.0 1014250
09:00+23всв51358100 0.0 1014416
12:00+28в71142100 0.0 1013788
15:00+29в61040100 0.0 10131286
18:00+28всв71345100 0.0 1011508
21:00+26в71742100 0.0 1012549
16 августа, вт
вт1600:00+26всв61539100 0.0 1012553
03:00+26в81636100 0.0 1011651
06:00+24вюв61641100 0.0 1012587
09:00+24в41152100 0.0 1013555
12:00+23вюв81641100 0.0 1013594
15:00+23вюв31048100 0.0 1013308
18:00+25в71444100 0.0 1013650
21:00+23в61648100 0.0 1013512
17 августа, ср
ср1700:00+22в6154697 0.0 1012395
03:00+20в6146768 0.3 1012315
06:00+18в4107798 0.9 1011204
09:00+24вюв6135679 0.9 1011654
12:00+29вюв783671 0.0 10111618
15:00+30в693433 0.1 10101987
18:00+28св510498 0.0 1009381
21:00+25в6134412 0.1 1009355
18 августа, чт
чт1800:00+20в4136116 0.5 1010217
03:00+18в347027 0.9 101061
06:00+17в377690 0.9 1011115
09:00+22в5855100 1.0 1011421
12:00+27в574282 0.0 1011834
15:00+30всв673615 0.1 10101630
18:00+27в594821 0.0 1011537
21:00+22всв4125712 0.0 1011232